Wind_Speed
15 16 16 16 16 17 17 17 18 18 19 20 20 20 20 20 20 21 20 20 21 20 21 21 21 21 21 22 23 23 23 23 23 24 25 25 25 25
17 18 18 18 18 18 19 19 20 20 21 21 22 22 22 22 22 22 22 22 22 23 22 22 22 23 23 23 24 24 24 24 24 25 26 26 25 26
19 20 20 20 20 21 21 22 22 22 22 22 23 23 23 23 24 24 23 23 24 24 24 23 23 24 25 25 26 26 26 26 26 26 27 26 26 26
21 21 21 21 21 22 22 23 23 23 23 23 24 25 25 25 25 25 26 26 26 25 26 26 26 26 27 27 27 27 27 27 27 27 27 27 27 27
23 23 22 23 23 23 23 23 23 24 24 25 25 26 27 27 27 27 27 28 28 27 27 27 28 28 28 28 28 28 28 28 28 29 29 29 28 27
25 25 26 26 26 26 25 25 25 25 25 26 26 27 27 27 28 28 29 28 29 28 28 28 29 29 29 29 28 29 29 29 29 30 30 30 29 28
26 27 27 26 27 27 27 26 26 27 27 27 27 28 28 29 29 30 30 29 29 29 28 29 29 30 29 29 29 29 30 30 30 31 30 30 30 29
28 28 28 28 28 28 28 28 28 28 28 28 29 29 30 30 30 31 30 30 30 30 29 29 29 29 29 29 29 29 30 30 30 30 30 30 30 30
29 29 29 29 29 30 30 30 30 30 31 31 31 31 31 31 31 31 31 30 31 31 31 30 30 29 29 29 30 30 30 30 30 30 29 30 30 29
30 30 31 31 31 31 31 31 31 32 32 32 32 32 33 32 32 32 32 32 31 32 31 31 31 31 31 30 30 30 29 30 30 30 30 29 29 29
32 32 32 32 32 32 32 33 33 32 32 33 33 33 33 33 32 33 33 33 32 32 32 32 32 32 32 31 31 31 30 29 29 29 29 30 30 31
33 33 33 33 33 34 34 34 33 33 34 34 34 33 34 34 34 34 34 33 33 33 33 33 33 32 32 32 32 31 31 30 30 30 30 30 30 30
34 34 33 33 33 33 34 33 33 34 34 34 34 34 34 34 35 35 34 34 33 33 33 33 32 32 32 32 32 32 32 31 31 30 30 30 30 30
34 34 34 34 33 33 33 33 33 34 34 34 34 33 33 33 34 34 34 34 34 33 32 32 32 32 33 33 32 32 32 31 31 31 31 31 31 30
34 33 33 33 33 33 33 33 34 34 34 34 33 33 33 33 33 34 35 35 35 34 33 33 33 33 32 32 32 32 31 30 30 30 31 30 31 31
33 33 33 33 34 34 33 33 33 33 33 33 32 33 33 34 34 34 35 35 34 34 34 34 33 33 33 33 32 32 32 31 30 30 30 30 31 30
33 33 34 34 34 34 33 33 32 32 32 32 32 32 33 34 34 34 34 34 34 34 34 34 34 34 33 33 33 32 32 31 30 29 30 30 31 31
34 34 34 35 35 33 32 32 31 31 31 32 32 32 32 33 33 33 33 34 34 34 34 33 34 34 33 33 33 32 32 31 31 30 31 31 31 30
33 33 33 33 32 31 31 30 30 30 30 31 31 31 32 32 32 32 32 33 33 33 33 33 33 34 33 33 33 32 32 32 33 32 32 31 30 30
33 32 32 31 31 30 29 29 29 29 29 29 30 30 31 31 32 32 31 31 32 32 32 32 32 32 32 32 31 32 32 32 33 32 32 31 30 30
31 31 30 29 29 28 28 28 28 28 28 28 29 29 29 30 30 31 31 31 31 31 31 31 31 32 32 32 32 32 32 32 31 31 31 31 30 30
29 29 29 28 28 27 27 28 28 28 28 29 29 28 29 29 30 30 31 30 30 30 31 31 31 31 32 32 32 31 31 31 31 31 31 31 31 30
27 27 27 27 28 27 27 27 28 28 28 29 29 29 29 30 30 29 29 29 29 30 31 31 31 31 31 31 31 31 31 31 31 31 31 30 30 31
Wind_Direction
299 298 294 291 288 286 285 285 284 283 284 283 284 286 286 286 286 285 283 281 281 279 278 277 278 278 278 279 278 277 276 275 274 273 274 274 275 274
296 297 295 291 289 287 287 287 284 282 282 283 284 284 284 284 285 285 284 282 281 279 278 279 280 279 278 279 279 278 277 275 274 274 275 277 277 276
297 297 295 292 289 288 287 286 285 282 282 282 282 282 284 283 283 283 282 281 281 279 277 278 279 280 278 279 279 278 277 275 275 275 276 276 276 276
295 296 294 293 291 291 290 287 285 283 282 283 282 283 283 284 283 282 281 281 281 279 278 278 277 278 278 280 280 278 276 276 275 275 276 275 275 274
293 293 292 291 290 288 288 288 286 284 282 283 284 284 284 284 284 283 282 281 281 279 278 278 278 278 279 279 280 279 276 275 275 276 276 274 274 274
291 291 290 289 287 285 286 285 284 285 284 285 285 286 287 287 286 285 283 283 282 280 278 278 279 279 279 279 279 279 278 277 276 276 275 275 274 273
289 290 291 291 288 286 285 283 283 283 284 284 285 286 286 286 286 285 283 282 281 280 279 279 280 280 279 278 278 278 278 277 277 276 274 273 273 273
289 290 289 289 289 286 284 282 281 281 283 285 286 285 285 285 284 283 281 281 279 279 280 280 282 282 280 279 278 278 278 278 278 277 275 273 271 271
290 290 289 289 288 287 284 283 282 281 282 283 285 285 285 284 284 282 281 281 280 280 280 281 282 282 280 279 279 280 279 279 278 277 275 273 271 271
290 289 289 289 287 285 284 284 284 282 281 281 283 283 283 284 283 283 281 280 281 283 283 282 281 281 279 278 278 279 280 279 276 274 273 272 270 269
290 290 290 288 286 284 283 284 284 284 283 282 282 282 282 281 282 283 282 283 283 283 284 284 282 280 279 278 277 278 279 278 276 273 272 271 270 269
289 290 289 286 285 284 284 285 284 284 285 285 283 282 282 280 280 281 281 281 281 282 283 283 281 280 278 277 276 277 278 277 275 274 274 273 271 269
287 288 287 285 284 285 286 285 285 285 286 285 285 283 282 282 281 280 280 280 280 281 281 282 281 280 279 278 278 277 278 277 276 275 274 274 272 271
287 285 285 286 286 285 285 285 286 285 285 285 284 282 282 282 282 281 280 279 280 281 281 280 280 281 280 278 277 278 278 278 277 275 274 274 273 272
285 284 284 286 287 286 286 285 285 284 284 284 283 282 282 282 281 280 279 280 280 280 280 279 278 280 281 279 277 276 276 276 276 276 276 275 274 274
283 283 285 286 287 287 286 285 284 283 284 284 283 282 282 281 280 280 280 279 279 280 280 279 278 278 278 279 278 276 275 275 275 274 272 272 273 273
284 284 285 285 285 287 287 286 284 283 283 284 284 283 283 283 281 280 279 278 278 278 279 280 279 278 277 277 277 276 276 275 273 271 270 270 271 270
284 284 285 285 284 285 285 286 286 286 285 285 285 284 284 284 283 281 280 279 278 278 278 278 278 276 276 275 275 274 273 273 273 272 273 272 271 271
283 284 286 286 286 286 286 286 287 287 288 288 287 286 285 284 284 284 282 281 279 279 278 278 278 277 275 274 274 273 273 273 274 274 274 273 271 270
282 283 284 286 287 286 285 285 286 288 290 291 291 289 288 287 286 285 283 282 280 278 278 278 278 278 276 275 273 272 272 272 272 272 272 270 269 270
282 284 285 286 286 285 286 287 287 288 289 291 292 291 290 289 287 285 284 283 283 282 280 280 279 278 277 277 275 274 273 272 272 270 270 268 267 269
283 284 284 285 287 286 286 287 287 288 288 290 291 291 290 290 289 287 285 285 285 284 283 282 280 279 279 279 277 274 273 271 270 269 268 267 267 267
283 285 286 286 287 286 286 288 289 289 289 290 289 289 290 291 290 290 289 288 288 287 285 283 282 281 280 280 277 273 271 270 270 270 268 267 266 267
Height
5881 5880 5879 5878 5877 5876 5875 5874 5874 5873 5872 5871 5870 5869 5868 5867 5866 5865 5865 5864 5863 5863 5862 5861 5861 5860 5859 5858 5858 5857 5856 5855 5855 5854 5854 5854 5853 5852
5878 5876 5874 5873 5872 5871 5870 5869 5868 5868 5867 5866 5865 5864 5863 5862 5861 5860 5859 5858 5858 5857 5856 5856 5855 5854 5853 5852 5851 5850 5850 5849 5848 5848 5847 5847 5846 5846
5873 5871 5870 5868 5867 5866 5865 5864 5863 5862 5861 5861 5859 5858 5857 5856 5855 5854 5853 5852 5851 5851 5850 5849 5848 5847 5846 5845 5845 5844 5843 5842 5841 5841 5840 5839 5839 5839
5868 5866 5865 5863 5862 5860 5859 5858 5857 5856 5856 5855 5853 5852 5851 5850 5849 5848 5847 5846 5845 5844 5843 5842 5841 5841 5839 5838 5837 5836 5836 5835 5834 5833 5833 5832 5832 5831
5862 5861 5859 5857 5856 5854 5853 5851 5851 5850 5849 5848 5847 5846 5844 5843 5842 5841 5840 5839 5837 5836 5836 5835 5834 5833 5832 5831 5830 5829 5828 5827 5826 5826 5825 5824 5824 5824
5856 5854 5852 5851 5849 5847 5846 5845 5844 5843 5842 5841 5840 5838 5837 5836 5835 5834 5832 5831 5830 5829 5828 5827 5826 5825 5824 5823 5822 5821 5820 5819 5818 5818 5817 5817 5816 5816
5850 5848 5845 5843 5842 5840 5839 5838 5836 5835 5834 5833 5832 5831 5830 5828 5827 5826 5824 5823 5822 5821 5820 5819 5818 5816 5815 5814 5813 5813 5812 5811 5810 5809 5809 5808 5808 5808
5842 5840 5838 5836 5834 5832 5831 5830 5829 5828 5826 5825 5824 5823 5822 5820 5819 5817 5816 5815 5814 5814 5811 5810 5809 5808 5806 5805 5805 5804 5803 5802 5801 5800 5800 5799 5799 5799
5834 5832 5830 5828 5826 5824 5823 5822 5820 5819 5818 5817 5816 5815 5813 5812 5810 5809 5807 5806 5806 5804 5803 5802 5800 5799 5798 5797 5796 5795 5794 5793 5793 5792 5791 5791 5791 5791
5826 5823 5821 5820 5818 5816 5815 5813 5812 5811 5809 5808 5807 5806 5805 5803 5802 5800 5799 5798 5797 5795 5794 5793 5792 5790 5789 5788 5788 5787 5785 5784 5784 5783 5782 5782 5782 5782
5817 5815 5813 5811 5809 5808 5806 5804 5803 5801 5800 5799 5797 5796 5795 5794 5793 5791 5790 5789 5788 5786 5785 5784 5783 5781 5780 5779 5778 5778 5777 5775 5775 5774 5774 5773 5773 5773
5809 5806 5804 5802 5800 5798 5797 5795 5793 5792 5790 5789 5788 5786 5785 5784 5783 5782 5781 5780 5779 5778 5776 5775 5773 5772 5771 5770 5769 5768 5767 5767 5766 5765 5765 5764 5764 5764
5799 5797 5794 5792 5790 5789 5787 5786 5784 5782 5780 5779 5777 5776 5775 5774 5773 5772 5771 5770 5769 5768 5767 5765 5763 5762 5761 5760 5759 5758 5758 5757 5756 5756 5756 5755 5755 5755
5789 5787 5785 5783 5781 5779 5778 5776 5774 5772 5770 5769 5767 5766 5765 5764 5763 5762 5761 5760 5759 5757 5756 5755 5754 5752 5751 5750 5750 5749 5748 5748 5747 5747 5746 5746 5746 5745
5779 5777 5775 5773 5771 5770 5768 5766 5764 5762 5760 5759 5757 5756 5755 5754 5752 5751 5750 5749 5748 5747 5746 5745 5744 5743 5741 5741 5740 5739 5739 5738 5738 5737 5737 5736 5736 5736
5769 5767 5765 5764 5762 5760 5758 5756 5754 5752 5751 5749 5747 5746 5745 5743 5742 5741 5740 5738 5737 5736 5735 5735 5734 5733 5731 5731 5730 5729 5729 5729 5728 5728 5727 5727 5727 5726
5760 5758 5756 5754 5752 5750 5748 5746 5744 5742 5741 5739 5737 5736 5734 5733 5731 5730 5729 5728 5727 5726 5725 5724 5723 5722 5721 5720 5720 5719 5719 5719 5719 5718 5718 5717 5717 5717
5750 5748 5746 5744 5742 5740 5738 5736 5734 5733 5731 5729 5727 5726 5724 5723 5721 5720 5719 5717 5716 5715 5714 5714 5712 5711 5710 5710 5710 5709 5709 5709 5708 5708 5708 5708 5707 5707
5740 5738 5736 5734 5732 5731 5729 5727 5726 5724 5722 5720 5718 5716 5714 5713 5711 5710 5708 5707 5706 5704 5703 5702 5701 5700 5700 5700 5699 5699 5698 5698 5698 5698 5698 5698 5698 5698
5731 5729 5727 5725 5723 5722 5720 5718 5717 5715 5713 5711 5709 5707 5705 5703 5701 5700 5698 5697 5695 5694 5693 5692 5691 5690 5689 5689 5688 5688 5687 5687 5688 5687 5687 5687 5687 5688
5721 5719 5717 5715 5714 5713 5711 5709 5707 5706 5704 5702 5700 5698 5696 5693 5692 5690 5689 5687 5685 5684 5683 5682 5680 5679 5678 5677 5677 5677 5676 5676 5676 5677 5677 5677 5677 5677
5712 5710 5708 5706 5705 5704 5702 5700 5699 5697 5695 5693 5691 5689 5687 5684 5683 5681 5679 5677 5676 5674 5672 5671 5670 5669 5667 5667 5666 5666 5665 5666 5665 5665 5666 5666 5666 5667
5703 5701 5700 5698 5697 5695 5694 5692 5690 5688 5686 5684 5682 5680 5678 5675 5673 5671 5669 5667 5666 5664 5662 5661 5659 5658 5657 5656 5655 5655 5654 5654 5654 5655 5655 5655 5656 5657